This demonstration page uses our WeatherBlox Daily Observations layout. Learn more.

Left ArrowRight Arrow

34.16533, -84.80231

Hourly Observations for July 30, 2017

Temp ( °F °C ) Dew Point ( °F °C ) Humidity (%) Winds ( mph kmh ) Pressure ( in mb ) Visibility ( mi km ) Precip ( " mm )
12:53 am 00:53 Clear 71 21.7 65 18.3 81 81 N 3 6 29.88 1012 10 16 0.00 0.00
1:53 am 01:53 Mostly Cloudy 68 20 66 18.9 93 93 Calm 29.89 1012 10 16 0.00 0.00
2:53 am 02:53 Mostly Cloudy 65 18.3 65 18.3 100 100 Calm 29.91 1013 10 16 0.00 0.00
3:53 am 03:53 Clear 64 17.8 64 17.8 100 100 Calm 29.92 1013 9 14 0.00 0.00
4:53 am 04:53 Clear 65 18.3 65 18.3 100 100 Calm 29.93 1014 10 16 0.00 0.00
5:53 am 05:53 Mostly Cloudy 64 17.8 64 17.8 100 100 Calm 29.95 1014 10 16 0.00 0.00
6:53 am 06:53 Partly Cloudy 63 17.2 63 17.2 100 100 Calm 29.96 1015 10 16 0.00 0.00
7:53 am 07:53 Mostly Cloudy 68 20 66 18.9 93 93 Calm 29.98 1015 10 16 0.00 0.00
8:53 am 08:53 Sunny 73 22.8 65 18.3 76 76 VRB 3 6 30.00 1016 10 16 0.00 0.00
9:53 am 09:53 Sunny 75 23.9 63 17.2 66 66 E 9 15 30.00 1016 10 16 0.00 0.00
10:53 am 10:53 Sunny 78 25.6 61 16.1 56 56 E 8 13 30.01 1016 10 16 0.00 0.00
11:53 am 11:53 Sunny 80 26.7 61 16.1 52 52 NE 8 13 30.02 1017 10 16 0.00 0.00
12:53 pm 12:53 Sunny 81 27.2 62 16.7 53 53 VRB 6 9 30.02 1017 10 16 0.00 0.00
1:53 pm 13:53 Sunny 84 28.9 62 16.7 48 48 VRB 6 9 30.01 1016 10 16 0.00 0.00
2:53 pm 14:53 Mostly Sunny 85 29.4 62 16.7 46 46 VRB 6 9 30.00 1016 10 16 0.00 0.00
3:53 pm 15:53 Mostly Cloudy 84 28.9 63 17.2 49 49 E 6 9 29.99 1016 10 16 0.00 0.00
4:53 pm 16:53 Partly Cloudy 86 30 62 16.7 45 45 Calm 29.98 1015 10 16 0.00 0.00
5:53 pm 17:53 Mostly Sunny 84 28.9 63 17.2 49 49 Calm 29.97 1015 10 16 0.00 0.00
6:53 pm 18:53 Mostly Cloudy 85 29.4 64 17.8 50 50 SSE 3 6 29.97 1015 10 16 0.00 0.00
7:53 pm 19:53 Partly Cloudy 83 28.3 65 18.3 55 55 NNE 5 7 29.98 1015 10 16 0.00 0.00
8:53 pm 20:53 Partly Cloudy 74 23.3 70 21.1 88 88 Calm 30.00 1016 10 16 0.00 0.00
9:53 pm 21:53 Clear 70 21.1 69 20.6 97 97 Calm 30.01 1016 10 16 0.00 0.00
10:53 pm 22:53 Clear 69 20.6 67 19.4 93 93 Calm 30.02 1017 10 16 0.00 0.00
11:53 pm 23:53 Clear 67 19.4 66 18.9 97 97 Calm 30.03 1017 10 16 0.00 0.00

Powered by AerisWeather